| time (UTC) | temp F | wind direction | speed MPH | gust MPH | rain 1hr in | rain 24hr in | rain mn in | humidity % | barometer mb |
| 20260505124535 | 66 | 112 | 3.0 | 6.0 | 0.00 | 0.17 | 0.00 | 73 | 1011.9 |
| 20260505123047 | 66 | 107 | 2.0 | 7.0 | 0.00 | 0.17 | 0.00 | 71 | 1012.0 |
| 20260505121535 | 65 | 121 | 4.0 | 7.0 | 0.00 | 0.17 | 0.00 | 73 | 1012.0 |
| 20260505114541 | 64 | 90 | 2.0 | 7.0 | 0.00 | 0.17 | 0.00 | 72 | 1012.2 |
| 20260505113027 | 65 | 71 | 4.0 | 8.0 | 0.00 | 0.17 | 0.00 | 71 | 1012.0 |
| 20260505111526 | 66 | 81 | 2.0 | 7.0 | 0.00 | 0.17 | 0.00 | 69 | 1012.3 |
| 20260505101521 | 64 | 123 | 2.0 | 5.0 | 0.00 | 0.17 | 0.00 | 70 | 1012.6 |
| 20260505100029 | 65 | 115 | 2.0 | 4.0 | 0.00 | 0.17 | 0.00 | 68 | 1012.7 |
| 20260505094520 | 65 | 131 | 3.0 | 5.0 | 0.00 | 0.17 | 0.00 | 69 | 1012.5 |
| 20260505093017 | 66 | 104 | 5.0 | 7.0 | 0.00 | 0.17 | 0.00 | 68 | 1012.1 |
| 20260505091522 | 64 | 349 | 1.0 | 7.0 | 0.00 | 0.17 | 0.00 | 70 | 1012.1 |
| 20260505090017 | 64 | 17 | 5.0 | 8.0 | 0.00 | 0.17 | 0.00 | 71 | 1012.1 |
| 20260505084514 | 64 | 314 | 3.0 | 7.0 | 0.00 | 0.17 | 0.00 | 68 | 1012.6 |
| 20260505083011 | 64 | 203 | 1.0 | 3.0 | 0.00 | 0.17 | 0.00 | 69 | 1012.6 |
| 20260505081509 | 65 | 142 | 0.0 | 3.0 | 0.00 | 0.17 | 0.00 | 69 | 1012.1 |
| 20260505080004 | 63 | 340 | 1.0 | 6.0 | 0.00 | 0.17 | 0.00 | 72 | 1012.2 |
| 20260505074502 | 62 | 319 | 4.0 | 10.0 | 0.00 | 0.17 | 0.00 | 72 | 1012.3 |
| 20260505073102 | 61 | 311 | 4.0 | 9.0 | 0.00 | 0.17 | 0.00 | 74 | 1012.4 |
| 20260505071558 | 60 | 281 | 2.0 | 6.0 | 0.00 | 0.17 | 0.00 | 77 | 1012.4 |
| 20260505070056 | 58 | 285 | 2.0 | 8.0 | 0.00 | 0.17 | 0.00 | 79 | 1012.3 |
| 20260505064553 | 57 | 288 | 6.0 | 10.0 | 0.00 | 0.17 | 0.00 | 79 | 1012.3 |
| 20260505063058 | 58 | 291 | 1.0 | 6.0 | 0.00 | 0.17 | 0.00 | 79 | 1012.3 |
| 20260505061555 | 57 | 233 | 1.0 | 7.0 | 0.00 | 0.17 | 0.00 | 80 | 1012.4 |
| 20260505060050 | 57 | 314 | 5.0 | 9.0 | 0.00 | 0.17 | 0.00 | 79 | 1012.3 |
| 20260505054550 | 57 | 310 | 6.0 | 12.0 | 0.00 | 0.17 | 0.00 | 79 | 1012.2 |
| 20260505053050 | 56 | 309 | 2.0 | 8.0 | 0.00 | 0.17 | 0.00 | 79 | 1012.0 |
| 20260505051548 | 56 | 306 | 3.0 | 8.0 | 0.00 | 0.17 | 0.00 | 80 | 1012.0 |
| 20260505050120 | 55 | 261 | 0.0 | 4.0 | 0.00 | 0.17 | 0.00 | 81 | 1012.1 |
| 20260505041552 | 56 | 260 | 0.0 | 6.0 | 0.00 | 0.17 | 0.00 | 81 | 1012.3 |
| 20260505040051 | 56 | 250 | 0.0 | 3.0 | 0.00 | 0.17 | 0.00 | 80 | 1012.3 |
| 20260505034540 | 57 | 309 | 4.0 | 7.0 | 0.00 | 0.17 | 0.00 | 79 | 1012.2 |
| 20260505033044 | 57 | 278 | 2.0 | 5.0 | 0.00 | 0.17 | 0.00 | 79 | 1012.2 |
| 20260505031544 | 57 | 294 | 2.0 | 5.0 | 0.00 | 0.17 | 0.00 | 80 | 1012.2 |
| 20260505030040 | 57 | 284 | 2.0 | 6.0 | 0.00 | 0.17 | 0.00 | 80 | 1012.3 |
| 20260505024536 | 57 | 255 | 1.0 | 4.0 | 0.00 | 0.17 | 0.00 | 80 | 1012.4 |
| 20260505023042 | 57 | 229 | 2.0 | 5.0 | 0.00 | 0.17 | 0.00 | 80 | 1012.3 |
| 20260505021534 | 57 | 235 | 0.0 | 4.0 | 0.00 | 0.17 | 0.00 | 80 | 1012.3 |
| 20260505020036 | 57 | 291 | 3.0 | 7.0 | 0.00 | 0.17 | 0.00 | 81 | 1012.2 |
| 20260505014538 | 57 | 298 | 4.0 | 7.0 | 0.00 | 0.17 | 0.00 | 80 | 1012.2 |
| 20260505013031 | 58 | 241 | 0.0 | 6.0 | 0.00 | 0.17 | 0.00 | 80 | 1012.3 |
| 20260505011532 | 57 | 298 | 4.0 | 6.0 | 0.00 | 0.17 | 0.00 | 81 | 1012.3 |
| 20260505010029 | 57 | 255 | 0.0 | 5.0 | 0.00 | 0.17 | 0.00 | 82 | 1012.5 |
| 20260505004535 | 57 | 242 | 0.0 | 2.0 | 0.00 | 0.17 | 0.00 | 82 | 1012.4 |
| 20260505003024 | 58 | 293 | 0.0 | 3.0 | 0.00 | 0.17 | 0.00 | 81 | 1012.6 |
| 20260505001524 | 58 | 314 | 1.0 | 3.0 | 0.00 | 0.17 | 0.00 | 81 | 1012.7 |
| 20260505000029 | 59 | 314 | 0.0 | 4.0 | 0.00 | 0.17 | 0.00 | 80 | 1012.6 |
| 20260504234522 | 59 | 295 | 3.0 | 7.0 | 0.00 | 0.17 | 0.00 | 79 | 1012.6 |
| 20260504233020 | 59 | 318 | 5.0 | 8.0 | 0.00 | 0.17 | 0.00 | 81 | 1012.6 |
| 20260504231519 | 58 | 288 | 1.0 | 3.0 | 0.00 | 0.17 | 0.00 | 84 | 1012.6 |
| 20260504230019 | 58 | 311 | 0.0 | 2.0 | 0.00 | 0.17 | 0.00 | 83 | 1012.4 |
| 20260504224514 | 59 | 313 | 1.0 | 3.0 | 0.00 | 0.17 | 0.00 | 83 | 1012.3 |
| 20260504221518 | 59 | 275 | 0.0 | 3.0 | 0.00 | 0.17 | 0.00 | 82 | 1012.2 |
| 20260504220009 | 59 | 221 | 0.0 | 0.0 | 0.00 | 0.17 | 0.00 | 83 | 1012.1 |
| 20260504214512 | 59 | 232 | 2.0 | 5.0 | 0.00 | 0.17 | 0.17 | 84 | 1012.3 |
| 20260504213022 | 59 | 271 | 1.0 | 6.0 | 0.00 | 0.17 | 0.17 | 84 | 1012.3 |
| 20260504211511 | 59 | 298 | 3.0 | 8.0 | 0.00 | 0.17 | 0.17 | 84 | 1012.2 |
| 20260504210005 | 60 | 324 | 4.0 | 7.0 | 0.08 | 0.18 | 0.17 | 83 | 1012.3 |
| 20260504204502 | 60 | 295 | 4.0 | 9.0 | 0.08 | 0.18 | 0.17 | 82 | 1012.7 |
| 20260504203121 | 60 | 309 | 5.0 | 9.0 | 0.08 | 0.18 | 0.17 | 81 | 1012.8 |
| 20260504201558 | 62 | 290 | 3.0 | 16.0 | 0.08 | 0.18 | 0.17 | 81 | 1013.0 |
| 20260504200056 | 62 | 146 | 3.0 | 8.0 | 0.00 | 0.10 | 0.09 | 84 | 1012.6 |
| 20260504194604 | 62 | 231 | 3.0 | 6.0 | 0.00 | 0.13 | 0.09 | 84 | 1012.2 |
| 20260504193105 | 62 | 231 | 1.0 | 3.0 | 0.00 | 0.13 | 0.09 | 86 | 1011.9 |
| 20260504191554 | 62 | 206 | 1.0 | 4.0 | 0.00 | 0.13 | 0.09 | 86 | 1011.8 |
| 20260504190113 | 62 | 229 | 2.0 | 5.0 | 0.00 | 0.13 | 0.09 | 86 | 1011.8 |
| 20260504184600 | 62 | 175 | 1.0 | 3.0 | 0.00 | 0.13 | 0.09 | 86 | 1011.5 |
| 20260504183051 | 63 | 221 | 2.0 | 3.0 | 0.00 | 0.13 | 0.09 | 85 | 1011.5 |
| 20260504181550 | 64 | 207 | 0.0 | 2.0 | 0.00 | 0.13 | 0.09 | 84 | 1011.0 |
| 20260504180050 | 64 | 165 | 0.0 | 2.0 | 0.00 | 0.13 | 0.09 | 83 | 1011.1 |
| 20260504174555 | 65 | 161 | 1.0 | 3.0 | 0.00 | 0.13 | 0.09 | 83 | 1011.1 |
| 20260504173052 | 64 | 191 | 0.0 | 1.0 | 0.01 | 0.13 | 0.09 | 85 | 1011.2 |
| 20260504171547 | 63 | 162 | 0.0 | 1.0 | 0.01 | 0.13 | 0.09 | 85 | 1011.2 |